[[{"header":{"parameterUnit":"m.s-1","parameterCategory":2,"la1":30.2991,"la2":30.254,"lo1":-89.0895,"lo2":-89.0444,"dy":0.0017,"dx":0.0017,"nx":28,"ny":28,"refTime":"2025-08-29T21:00:00:Z","depth":"0","parameterNumber":2,"parameterNumberName":"U-component_of_CURRENTS"},"data":[0,0,0,0,0,0,0,0,0,0,0,0,0,0,0,0,0,0,0,0,0,0,0,0,0,0,0,0,0,0,0,0,0,0,0,0,0,0,0,0,0,0,0,0,0,0,0,0,0,0,0,0,0,0,0,0,0,0,-0.3381,-0.3381,0,-0.3327,-0.3325,-0.3324,-0.3233,-0.3233,-0.3232,-0.3231,-0.3169,-0.3168,-0.3167,0,0,0,0,0,0,0,0,0,0,0,0,0,-0.3247,-0.325,-0.3381,-0.3381,-0.3381,-0.3327,-0.3325,-0.3324,-0.3234,-0.3232,-0.3231,-0.323,-0.3169,-0.3168,-0.3167,0,0,0,0,0,0,0,0,0,0,0,0,0,-0.3252,-0.3251,-0.3381,-0.3336,-0.3332,-0.3327,-0.3325,-0.3323,-0.3234,-0.3232,-0.3231,-0.323,-0.317,-0.3168,-0.3167,-0.3186,0,0,-0.3163,-0.3163,0,0,0,0,0,0,0,0,-0.3252,-0.3256,-0.3342,-0.3339,-0.3335,-0.3293,-0.3256,-0.328,-0.3234,-0.3262,-0.3231,-0.3229,-0.3217,-0.3211,-0.3192,-0.3183,-0.318,-0.3163,-0.3163,-0.3162,-0.3162,0,0,0,0,0,0,0,-0.3252,-0.3257,-0.335,-0.3343,-0.3338,-0.3265,-0.3264,-0.3258,-0.324,-0.3259,-0.3255,-0.3263,-0.3213,-0.3193,-0.319,-0.3179,-0.3163,-0.3162,-0.3161,-0.3161,-0.3146,-0.3147,0,0,0,0,0,0,-0.3287,-0.3259,-0.3352,-0.335,-0.3299,-0.327,-0.3269,-0.3301,-0.324,-0.3233,-0.3264,-0.3259,-0.3196,-0.3191,-0.3187,-0.3206,-0.3162,-0.3161,-0.316,-0.3146,-0.3146,-0.3147,0,0,0,0,0,0,-0.3285,-0.3297,-0.3355,-0.3307,-0.3311,-0.3275,-0.331,-0.33,-0.3285,-0.3246,-0.3236,-0.3261,-0.3195,-0.3189,-0.3184,-0.3203,-0.316,-0.3159,-0.3145,-0.3146,-0.3147,-0.3243,0,0,0,0,0,0,-0.3282,-0.3297,-0.3314,-0.3311,-0.3315,-0.3348,-0.3312,-0.3301,-0.3297,-0.3289,-0.3241,-0.3232,-0.3193,-0.3186,-0.3183,-0.32,-0.3158,-0.3145,-0.3146,-0.3146,-0.324,-0.3247,-0.3253,0,0,0,0,0,-0.3277,-0.3302,-0.3316,-0.3326,-0.3347,-0.3349,-0.3342,-0.3305,-0.3298,-0.3287,-0.3263,-0.3234,-0.3187,-0.3186,-0.3182,-0.3199,-0.3145,-0.3146,-0.3146,-0.3236,-0.3246,-0.3253,0,0,0,0,0,0,-0.3227,-0.3297,-0.331,-0.3349,-0.3354,-0.3337,-0.3328,-0.332,-0.3292,-0.3282,-0.325,-0.324,-0.3238,-0.3208,-0.3208,-0.3193,-0.3158,-0.3158,-0.3227,-0.3236,-0.3242,-0.3258,-0.3157,0,0,0,0,0,-0.324,-0.3292,-0.3322,-0.3351,-0.3363,-0.3355,-0.335,-0.3329,-0.3316,-0.3301,-0.3276,-0.3248,-0.3238,-0.3229,-0.3202,-0.321,-0.3143,-0.3212,-0.3219,-0.3225,-0.3233,-0.3147,-0.3147,-0.3149,-0.3149,-0.3149,0,0,-0.3233,-0.3275,-0.3303,-0.3347,-0.3349,-0.3362,-0.3345,-0.3341,-0.3349,-0.3303,-0.3298,-0.3274,-0.3245,-0.3239,-0.3236,-0.3219,-0.3186,-0.3226,-0.3232,-0.3237,-0.3148,-0.3148,-0.3148,-0.315,-0.315,-0.315,0,0,-0.323,-0.3284,-0.3318,-0.3333,-0.3354,-0.3358,-0.337,-0.3364,-0.3358,-0.3361,-0.3332,-0.3332,-0.3301,-0.3291,-0.3284,-0.332,-0.3225,-0.3297,-0.335,-0.3267,-0.3266,-0.3265,-0.3165,-0.3154,-0.3301,-0.3302,-0.3302,0,-0.3213,-0.3264,-0.3316,-0.3339,-0.3352,-0.337,-0.338,-0.339,-0.3376,-0.3387,-0.3364,-0.3345,-0.3331,-0.3349,-0.3358,-0.334,-0.3254,-0.3327,-0.3276,-0.3273,-0.327,-0.3168,-0.3155,-0.3306,-0.3306,-0.3305,-0.3305,0,-0.323,-0.3262,-0.3279,-0.3338,-0.3358,-0.3364,-0.3405,-0.3419,-0.3428,-0.3432,-0.3444,-0.3421,-0.3408,-0.341,-0.3402,-0.3387,-0.3319,-0.3295,-0.3259,-0.3276,-0.3167,-0.3151,-0.3313,-0.3311,-0.331,-0.3309,0,0,-0.3205,-0.328,-0.3281,-0.3292,-0.3353,-0.336,-0.342,-0.3461,-0.3456,-0.3487,-0.3459,-0.3521,-0.3506,-0.3498,-0.3481,-0.3433,-0.3353,-0.3359,-0.3352,-0.3266,-0.313,-0.3083,-0.306,-0.3298,-0.3297,-0.3295,-0.3058,0,-0.319,-0.3216,-0.3274,-0.3292,-0.3302,-0.3366,-0.3398,-0.3443,-0.3456,-0.3425,-0.3477,-0.3435,-0.3541,-0.3487,-0.3489,-0.3355,-0.3316,-0.3417,-0.3121,-0.3112,-0.3074,-0.3044,-0.2938,-0.2717,-0.3042,-0.3039,-0.3037,0,-0.3176,-0.3192,-0.3208,-0.3246,-0.3258,-0.3275,-0.3313,-0.3347,-0.3373,-0.3368,-0.3412,-0.3391,-0.3401,-0.3413,-0.3326,-0.337,-0.3281,-0.3193,-0.318,-0.3095,-0.3037,-0.2754,-0.2675,-0.2662,-0.3012,-0.3014,-0.3016,0,-0.3098,-0.3143,-0.3149,-0.3166,-0.3219,-0.3238,-0.3273,-0.332,-0.3311,-0.3307,-0.3245,-0.3293,-0.3228,-0.3186,-0.3145,-0.3177,-0.296,-0.2966,-0.2858,-0.2851,-0.2686,-0.2669,-0.2568,-0.2876,-0.2876,-0.2877,-0.2877,0,-0.3051,-0.3044,-0.3102,-0.3096,-0.3077,-0.3156,-0.3121,-0.3176,-0.3155,-0.3114,-0.3201,-0.3138,-0.3155,-0.3076,-0.3052,-0.2925,-0.2913,-0.2854,-0.2788,-0.2716,-0.2706,-0.2628,-0.2664,-0.2868,-0.287,-0.2872,-0.2873,0,-0.2945,-0.2997,-0.299,-0.3033,-0.3037,-0.3024,-0.3022,-0.2971,-0.3011,-0.2932,-0.2917,-0.2951,-0.2883,-0.2893,-0.2749,-0.2767,-0.2592,-0.2606,-0.253,-0.2463,-0.2364,-0.241,-0.2223,-0.2161,-0.2407,-0.2405,-0.2403,0,-0.2895,-0.2878,-0.2912,-0.2884,-0.2893,-0.2875,-0.283,-0.2884,-0.2838,-0.2835,-0.2767,-0.2707,-0.2678,-0.2513,-0.2483,-0.2391,-0.2444,-0.2243,-0.2327,-0.2335,-0.2335,-0.238,-0.2346,-0.212,-0.2115,-0.2112,-0.2109,0,-0.277,-0.2788,-0.2774,-0.2713,-0.2673,-0.2624,-0.2592,-0.2543,-0.2599,-0.2558,-0.2521,-0.2489,-0.2397,-0.2289,-0.2207,-0.2158,-0.2193,-0.2168,-0.2171,-0.2107,-0.2146,-0.2061,-0.2305,-0.2078,-0.2081,-0.2083,-0.2085,-0.2086,-0.2663,-0.2618,-0.2592,-0.2515,-0.2457,-0.2372,-0.2291,-0.2285,-0.2229,-0.2188,-0.2268,-0.2212,-0.2168,-0.2048,-0.1986,-0.186,-0.1946,-0.1826,-0.1872,-0.1911,-0.1891,-0.2085,-0.181,-0.1812,-0.1813,-0.1814,-0.1815,0,-0.2525,-0.2467,-0.2383,-0.2287,-0.2132,-0.2179,-0.2101,-0.2017,-0.194,-0.1974,-0.1957,-0.1942,-0.1822,-0.1796,-0.1689,-0.1605,-0.1578,-0.1575,-0.1608,-0.1582,-0.1707,-0.174,-0.1445,-0.1445,-0.1445,-0.1445,-0.1445,-0.1445,-0.2454,-0.2323,-0.2266,-0.1986,-0.1895,-0.1698,-0.164,-0.1592,-0.1594,-0.1558,-0.1585,-0.1655,-0.1661,-0.1732,-0.1592,-0.1501,-0.148,-0.1418,-0.1465,-0.158,-0.1609,-0.1636,-0.1675,-0.1371,-0.1371,-0.1271,-0.127,-0.127]},{"header":{"parameterUnit":"m.s-1","parameterCategory":2,"la1":30.2991,"la2":30.254,"lo1":-89.0895,"lo2":-89.0444,"dy":0.0017,"dx":0.0017,"nx":28,"ny":28,"refTime":"2025-08-29T21:00:00:Z","depth":"0","parameterNumber":3,"parameterNumberName":"V-component_of_CURRENTS"},"data":[0,0,0,0,0,0,0,0,0,0,0,0,0,0,0,0,0,0,0,0,0,0,0,0,0,0,0,0,0,0,0,0,0,0,0,0,0,0,0,0,0,0,0,0,0,0,0,0,0,0,0,0,0,0,0,0,0,0,-0.0468,-0.0466,0,-0.0312,-0.031,-0.0308,-0.0235,-0.0235,-0.0235,-0.0235,-0.008,-0.0076,-0.0072,0,0,0,0,0,0,0,0,0,0,0,0,0,-0.0601,-0.06,-0.0468,-0.0466,-0.0464,-0.0312,-0.031,-0.0308,-0.0235,-0.0235,-0.0235,-0.0235,-0.0082,-0.0077,-0.0072,0,0,0,0,0,0,0,0,0,0,0,0,0,-0.0505,-0.0599,-0.0469,-0.0409,-0.0402,-0.0312,-0.031,-0.0307,-0.0235,-0.0235,-0.0235,-0.0235,-0.0083,-0.0077,-0.0071,-0.0031,0,0,-0.0052,-0.0049,0,0,0,0,0,0,0,0,-0.0511,-0.05,-0.042,-0.0413,-0.0405,-0.0292,-0.03,-0.0215,-0.0235,-0.0299,-0.0235,-0.0235,-0.0151,-0.0139,-0.011,-0.0024,-0.0018,-0.0052,-0.0048,-0.0045,-0.0043,0,0,0,0,0,0,0,-0.0517,-0.0506,-0.0407,-0.0418,-0.0409,-0.0355,-0.0342,-0.0283,-0.0227,-0.0293,-0.0287,-0.0269,-0.0147,-0.0117,-0.0106,-0.0015,-0.0052,-0.0046,-0.0042,-0.004,0.0128,0.0128,0,0,0,0,0,0,-0.0541,-0.0513,-0.0412,-0.0402,-0.0458,-0.0353,-0.0339,-0.0329,-0.0227,-0.0212,-0.0269,-0.0266,-0.0127,-0.0114,-0.0101,-0.0047,-0.0045,-0.0039,-0.0036,0.0127,0.0128,0.0129,0,0,0,0,0,0,-0.0544,-0.0534,-0.0418,-0.0453,-0.0434,-0.0351,-0.034,-0.0326,-0.0294,-0.0209,-0.0194,-0.0253,-0.0127,-0.0109,-0.0042,-0.0041,-0.0037,-0.0031,0.0126,0.0127,0.0128,0.0059,0,0,0,0,0,0,-0.0549,-0.0536,-0.054,-0.0455,-0.0433,-0.0372,-0.034,-0.0323,-0.0282,-0.0277,-0.0189,-0.0175,-0.0126,-0.0051,-0.0036,-0.0032,-0.0026,0.0125,0.0127,0.0128,0.0061,0.0058,0.0056,0,0,0,0,0,-0.0554,-0.0561,-0.0541,-0.0529,-0.0441,-0.0372,-0.0356,-0.0297,-0.0282,-0.0269,-0.0205,-0.0178,-0.0032,-0.0045,-0.0027,-0.0022,0.0125,0.0126,0.0128,0.0062,0.0059,0.0056,0,0,0,0,0,0,-0.0621,-0.0551,-0.0528,-0.0514,-0.0451,-0.036,-0.0345,-0.0301,-0.0239,-0.0237,-0.0162,-0.0142,-0.0085,-0.0039,-0.0056,0.0032,0.0048,0.0054,-0.0008,-0.001,-0.0013,-0.0036,-0.0021,0,0,0,0,0,-0.0639,-0.0629,-0.0545,-0.0537,-0.051,-0.0429,-0.0396,-0.0352,-0.0283,-0.0256,-0.0193,-0.0125,-0.0063,-0.0027,0.0033,0.0085,0.0114,0.01,0.0097,0.0094,0.0089,0.0131,0.013,0.0134,0.0134,0.0134,0,0,-0.0668,-0.0624,-0.0622,-0.0551,-0.0502,-0.0463,-0.041,-0.0363,-0.0329,-0.0249,-0.0194,-0.0132,-0.005,0.0007,0.0036,0.0044,0.011,0.0097,0.0093,0.009,0.0132,0.0132,0.0131,0.0135,0.0135,0.0135,0,0,-0.0709,-0.0678,-0.0677,-0.0627,-0.0553,-0.0497,-0.0487,-0.0395,-0.0356,-0.0289,-0.0226,-0.0162,-0.0067,-0.0006,0.0037,0.0059,0.0093,0.0074,0.0046,0.0086,0.0085,0.0085,0.0117,0.0121,0.0075,0.0075,0.0075,0,-0.0746,-0.0727,-0.0666,-0.064,-0.0609,-0.0518,-0.0501,-0.0439,-0.0337,-0.0305,-0.0285,-0.0138,-0.0073,0.0006,0.0014,0.0051,0.0074,0.0046,0.0079,0.008,0.0081,0.0114,0.0119,0.0072,0.0072,0.0072,0.0073,0,-0.0777,-0.0755,-0.075,-0.0693,-0.065,-0.0622,-0.053,-0.0484,-0.0429,-0.0362,-0.0279,-0.0182,-0.0098,-0.0065,-0.0017,0.003,0.0044,0.0065,0.0077,0.0076,0.0112,0.0118,0.0067,0.0068,0.0069,0.007,0,0,-0.0876,-0.0792,-0.079,-0.0772,-0.0678,-0.0648,-0.0593,-0.0514,-0.0483,-0.0383,-0.034,-0.022,-0.0168,-0.0116,-0.0044,-0.0001,0.0028,0.0027,0.0031,0.0042,0.0106,0.0153,0.0164,0.0047,0.0048,0.0049,0.0126,0,-0.092,-0.0896,-0.0837,-0.0818,-0.0797,-0.0707,-0.0664,-0.0581,-0.0504,-0.0438,-0.0326,-0.0256,-0.0185,-0.0152,-0.0094,-0.0003,0.0041,0.0005,0.0122,0.0125,0.0153,0.0172,0.0212,0.0288,0.0132,0.0133,0.0134,0,-0.0968,-0.0942,-0.0934,-0.0873,-0.086,-0.0836,-0.0764,-0.0711,-0.0588,-0.0529,-0.0434,-0.0343,-0.0242,-0.0197,-0.0045,-0.0076,0.0006,0.0075,0.008,0.0151,0.0184,0.0269,0.0305,0.0455,0.0143,0.0142,0.0142,0,-0.1063,-0.1012,-0.1014,-0.0992,-0.0907,-0.0897,-0.0855,-0.0747,-0.07,-0.0592,-0.0548,-0.0414,-0.0346,-0.0229,-0.006,-0.0065,0.0095,0.0107,0.0231,0.0235,0.0308,0.0318,0.0491,0.0203,0.0202,0.0202,0.0202,0,-0.1125,-0.1127,-0.1063,-0.1062,-0.1068,-0.0985,-0.0969,-0.0902,-0.0804,-0.0745,-0.061,-0.0534,-0.0354,-0.0222,-0.0088,0.0099,0.0079,0.0231,0.0263,0.0287,0.0293,0.0459,0.0515,0.0205,0.0204,0.0204,0.0203,0,-0.1212,-0.1169,-0.1171,-0.1117,-0.1108,-0.1115,-0.1047,-0.1015,-0.0923,-0.0847,-0.0816,-0.063,-0.0455,-0.0259,-0.006,0.0068,0.0332,0.0303,0.032,0.0353,0.0593,0.0642,0.0836,0.0921,0.0435,0.0437,0.0438,0,-0.1251,-0.1258,-0.1233,-0.1233,-0.1212,-0.1201,-0.1176,-0.1089,-0.1043,-0.0889,-0.0853,-0.0671,-0.0505,-0.0188,0.0057,0.0301,0.0422,0.0474,0.0481,0.0622,0.0701,0.0734,0.0793,0.055,0.0552,0.0554,0.0555,0,-0.1324,-0.1317,-0.1311,-0.1309,-0.1304,-0.1288,-0.1251,-0.1236,-0.1113,-0.1029,-0.0882,-0.0748,-0.0417,-0.0107,0.0214,0.0367,0.059,0.0518,0.0669,0.0813,0.0856,0.0948,0.0474,0.0572,0.057,0.0569,0.0568,0.0567,-0.138,-0.1399,-0.1383,-0.1377,-0.1365,-0.1348,-0.1336,-0.1276,-0.1204,-0.104,-0.0914,-0.0665,-0.0233,0.0236,0.0407,0.0784,0.0742,0.0898,0.0946,0.0967,0.1058,0.0616,0.0747,0.0746,0.0745,0.0745,0.0745,0,-0.1433,-0.1438,-0.144,-0.1424,-0.1403,-0.1385,-0.1349,-0.1304,-0.122,-0.103,-0.0856,-0.0347,0.0085,0.0482,0.0996,0.1201,0.1244,0.1303,0.1368,0.1409,0.1032,0.1047,0.1243,0.1243,0.1243,0.1242,0.1242,0.1242,-0.1459,-0.1479,-0.1468,-0.1445,-0.1425,-0.1394,-0.1374,-0.1296,-0.1157,-0.0831,-0.0521,-0.0278,0.0284,0.1089,0.156,0.1605,0.1776,0.1764,0.1848,0.1597,0.1562,0.153,0.156,0.186,0.1861,0.2219,0.2222,0.2225]}],[{"header":{"parameterUnit":"m.s-1","parameterCategory":2,"la1":30.2991,"la2":30.254,"lo1":-89.0895,"lo2":-89.0444,"dy":0.0017,"dx":0.0017,"nx":28,"ny":28,"refTime":"2025-08-29T21:00:00:Z","depth":"2","parameterNumber":2,"parameterNumberName":"U-component_of_CURRENTS"},"data":[0,0,0,0,0,0,0,0,0,0,0,0,0,0,0,0,0,0,0,0,0,0,0,0,0,0,0,0,0,0,0,0,0,0,0,0,0,0,0,0,0,0,0,0,0,0,0,0,0,0,0,0,0,0,0,0,0,0,-0.2227,-0.2228,0,-0.2361,-0.2364,-0.2366,-0.2423,-0.2422,-0.2421,-0.242,-0.2608,-0.2613,-0.2619,0,0,0,0,0,0,0,0,0,0,0,0,0,-0.2189,-0.2189,-0.2227,-0.2228,-0.2229,-0.2361,-0.2364,-0.2366,-0.2423,-0.2422,-0.2421,-0.242,-0.2606,-0.2613,-0.262,0,0,0,0,0,0,0,0,0,0,0,0,0,-0.2261,-0.2189,-0.2227,-0.2266,-0.227,-0.236,-0.2364,-0.2367,-0.2424,-0.2422,-0.242,-0.2419,-0.2603,-0.2612,-0.2621,-0.2709,0,0,-0.2648,-0.2652,0,0,0,0,0,0,0,0,-0.2256,-0.2263,-0.226,-0.2264,-0.2268,-0.2366,-0.2419,-0.2481,-0.2424,-0.2375,-0.242,-0.2418,-0.2527,-0.2542,-0.2583,-0.2717,-0.2725,-0.2649,-0.2655,-0.2658,-0.2661,0,0,0,0,0,0,0,-0.2251,-0.2259,-0.2289,-0.226,-0.2266,-0.2335,-0.2342,-0.2432,-0.2467,-0.2379,-0.2381,-0.2382,-0.2531,-0.2574,-0.2588,-0.2728,-0.2649,-0.2657,-0.2662,-0.2666,-0.2911,-0.2912,0,0,0,0,0,0,-0.2209,-0.2253,-0.2285,-0.2292,-0.2248,-0.2335,-0.2345,-0.2344,-0.2464,-0.2478,-0.2384,-0.2384,-0.256,-0.2577,-0.2595,-0.2716,-0.2658,-0.2667,-0.2672,-0.2909,-0.2911,-0.2912,0,0,0,0,0,0,-0.2208,-0.2211,-0.2279,-0.2269,-0.2281,-0.2335,-0.2335,-0.2347,-0.2406,-0.2465,-0.2482,-0.243,-0.2559,-0.2582,-0.2708,-0.2722,-0.2671,-0.2679,-0.2908,-0.291,-0.2911,-0.2951,0,0,0,0,0,0,-0.2206,-0.221,-0.2217,-0.2266,-0.228,-0.235,-0.2336,-0.235,-0.2403,-0.2407,-0.2512,-0.2526,-0.256,-0.2695,-0.2717,-0.2734,-0.2686,-0.2907,-0.2909,-0.2911,-0.2948,-0.2954,-0.2958,0,0,0,0,0,-0.2205,-0.2219,-0.2217,-0.2222,-0.2281,-0.2351,-0.2369,-0.2407,-0.2407,-0.2453,-0.2527,-0.2523,-0.272,-0.2706,-0.2731,-0.275,-0.2906,-0.2908,-0.2911,-0.2946,-0.2953,-0.2958,0,0,0,0,0,0,-0.2199,-0.2226,-0.2226,-0.2244,-0.2297,-0.2358,-0.2392,-0.2425,-0.2521,-0.2524,-0.2582,-0.2606,-0.2713,-0.2733,-0.2714,-0.282,-0.2795,-0.2803,-0.2813,-0.282,-0.2825,-0.2769,-0.2693,0,0,0,0,0,-0.2199,-0.2208,-0.2257,-0.2265,-0.2294,-0.235,-0.2387,-0.2419,-0.2492,-0.2533,-0.2598,-0.2662,-0.2742,-0.2783,-0.2857,-0.2945,-0.2894,-0.2956,-0.2961,-0.2966,-0.2934,-0.2895,-0.2893,-0.292,-0.292,-0.292,0,0,-0.2196,-0.2204,-0.2213,-0.2264,-0.2302,-0.2358,-0.2372,-0.2432,-0.2478,-0.2541,-0.2635,-0.2707,-0.2775,-0.2867,-0.2909,-0.2886,-0.2931,-0.2969,-0.2972,-0.2938,-0.2897,-0.2894,-0.2891,-0.2922,-0.2922,-0.2921,0,0,-0.2199,-0.2206,-0.2233,-0.2279,-0.2335,-0.2373,-0.2394,-0.2477,-0.2519,-0.2627,-0.267,-0.2747,-0.2874,-0.2911,-0.2949,-0.3026,-0.2973,-0.3045,-0.302,-0.2984,-0.2981,-0.2977,-0.2901,-0.289,-0.3031,-0.3031,-0.3031,0,-0.2197,-0.2217,-0.2257,-0.2299,-0.2322,-0.2379,-0.2426,-0.2491,-0.2602,-0.2626,-0.2653,-0.2796,-0.288,-0.2948,-0.2986,-0.3035,-0.299,-0.2998,-0.2988,-0.2983,-0.2978,-0.2902,-0.2889,-0.3033,-0.3033,-0.3033,-0.3032,0,-0.2244,-0.2253,-0.227,-0.2324,-0.2375,-0.2417,-0.2492,-0.2557,-0.2602,-0.264,-0.2724,-0.2827,-0.2892,-0.2936,-0.3007,-0.3019,-0.2991,-0.3012,-0.2966,-0.2977,-0.2897,-0.2883,-0.3036,-0.3035,-0.3035,-0.3034,0,0,-0.2211,-0.2291,-0.2281,-0.2304,-0.2383,-0.2425,-0.25,-0.2569,-0.2593,-0.268,-0.2694,-0.2844,-0.2863,-0.2905,-0.2975,-0.2957,-0.2929,-0.2979,-0.2976,-0.2889,-0.2812,-0.2763,-0.2742,-0.2952,-0.295,-0.2948,-0.2765,0,-0.2218,-0.2273,-0.2317,-0.236,-0.2396,-0.246,-0.2517,-0.2584,-0.2636,-0.2672,-0.2722,-0.2782,-0.2859,-0.29,-0.29,-0.2944,-0.2895,-0.2974,-0.2824,-0.2817,-0.2762,-0.2726,-0.2563,-0.2384,-0.2751,-0.2749,-0.2747,0,-0.2227,-0.2255,-0.2307,-0.2355,-0.2378,-0.2426,-0.2486,-0.2545,-0.2603,-0.2643,-0.2671,-0.2715,-0.275,-0.2798,-0.278,-0.2828,-0.2816,-0.281,-0.2803,-0.2724,-0.2742,-0.2434,-0.2344,-0.2723,-0.2725,-0.2727,-0.2728,0,-0.2163,-0.2223,-0.225,-0.2275,-0.2371,-0.2406,-0.2452,-0.2524,-0.2558,-0.2603,-0.2615,-0.2641,-0.2662,-0.2644,-0.2694,-0.2729,-0.2624,-0.2664,-0.2569,-0.2564,-0.2373,-0.2355,-0.2583,-0.2583,-0.2583,-0.2584,-0.2584,0,-0.2134,-0.2143,-0.2224,-0.2248,-0.2272,-0.2355,-0.2385,-0.2446,-0.25,-0.2508,-0.2583,-0.2585,-0.263,-0.2608,-0.2623,-0.255,-0.256,-0.2526,-0.2508,-0.2385,-0.237,-0.2634,-0.2643,-0.2577,-0.2578,-0.258,-0.2581,0,-0.2057,-0.2117,-0.2147,-0.2232,-0.2249,-0.2267,-0.2343,-0.2361,-0.2433,-0.2442,-0.2454,-0.252,-0.2494,-0.2502,-0.2465,-0.2452,-0.2394,-0.2359,-0.2199,-0.2167,-0.2358,-0.2372,-0.2189,-0.2185,-0.2182,-0.218,-0.2178,0,-0.2036,-0.2038,-0.2102,-0.2116,-0.2156,-0.2194,-0.2213,-0.2308,-0.2329,-0.2399,-0.2386,-0.2387,-0.2369,-0.2282,-0.2246,-0.2162,-0.228,-0.1971,-0.2017,-0.2314,-0.2315,-0.2333,-0.2349,-0.1764,-0.1758,-0.1754,-0.1751,0,-0.1965,-0.1979,-0.2005,-0.2016,-0.2044,-0.2066,-0.2109,-0.2121,-0.2216,-0.2233,-0.2241,-0.2225,-0.2167,-0.2026,-0.1951,-0.1899,-0.1979,-0.1881,-0.2191,-0.1924,-0.1908,-0.1913,-0.1943,-0.1713,-0.1716,-0.1719,-0.1721,-0.1723,-0.1895,-0.1874,-0.1888,-0.189,-0.1917,-0.1919,-0.1896,-0.1952,-0.1954,-0.1954,-0.2035,-0.196,-0.1944,-0.1744,-0.1649,-0.1579,-0.1722,-0.1656,-0.1671,-0.169,-0.1708,-0.1692,-0.1455,-0.1457,-0.1459,-0.1461,-0.1463,0,-0.1782,-0.1764,-0.1756,-0.1757,-0.1724,-0.1784,-0.1795,-0.1753,-0.1708,-0.1741,-0.1725,-0.1556,-0.1451,-0.1443,-0.1275,-0.1242,-0.124,-0.1192,-0.1196,-0.1234,-0.1268,-0.1268,-0.0896,-0.0894,-0.0893,-0.0891,0,0,-0.1751,-0.1664,-0.164,-0.1541,-0.1544,-0.1462,-0.1442,-0.1407,-0.1403,-0.1333,-0.1298,-0.1391,-0.1413,-0.1169,-0.11,-0.0974,-0.1095,-0.092,-0.1374,-0.1418,-0.145,-0.1533,-0.1574,0,0,0,0,0]},{"header":{"parameterUnit":"m.s-1","parameterCategory":2,"la1":30.2991,"la2":30.254,"lo1":-89.0895,"lo2":-89.0444,"dy":0.0017,"dx":0.0017,"nx":28,"ny":28,"refTime":"2025-08-29T21:00:00:Z","depth":"2","parameterNumber":3,"parameterNumberName":"V-component_of_CURRENTS"},"data":[0,0,0,0,0,0,0,0,0,0,0,0,0,0,0,0,0,0,0,0,0,0,0,0,0,0,0,0,0,0,0,0,0,0,0,0,0,0,0,0,0,0,0,0,0,0,0,0,0,0,0,0,0,0,0,0,0,0,-0.0234,-0.0233,0,-0.0149,-0.0148,-0.0147,-0.0085,-0.0084,-0.0084,-0.0084,0.0165,0.0171,0.0177,0,0,0,0,0,0,0,0,0,0,0,0,0,-0.0269,-0.0269,-0.0234,-0.0233,-0.0232,-0.0149,-0.0148,-0.0146,-0.0085,-0.0084,-0.0084,-0.0084,0.0163,0.017,0.0178,0,0,0,0,0,0,0,0,0,0,0,0,0,-0.0224,-0.0269,-0.0234,-0.0193,-0.0189,-0.015,-0.0148,-0.0146,-0.0085,-0.0084,-0.0084,-0.0084,0.016,0.017,0.0179,0.0229,0,0,0.0208,0.0212,0,0,0,0,0,0,0,0,-0.0227,-0.0223,-0.02,-0.0196,-0.0191,-0.0129,-0.0069,-0.0013,-0.0085,-0.0122,-0.0084,-0.0083,0.008,0.0096,0.0112,0.024,0.0251,0.0209,0.0215,0.0219,0.0221,0,0,0,0,0,0,0,-0.023,-0.0225,-0.0198,-0.02,-0.0194,-0.0154,-0.0148,-0.0058,-0.002,-0.0119,-0.0115,-0.0109,0.0084,0.0103,0.0119,0.0255,0.0209,0.0217,0.0223,0.0227,0.0479,0.048,0,0,0,0,0,0,-0.025,-0.0229,-0.0201,-0.0196,-0.0211,-0.0155,-0.0147,-0.0148,-0.0024,-0.0007,-0.011,-0.0107,0.0086,0.0108,0.0128,0.0221,0.0219,0.0228,0.0233,0.0478,0.0479,0.048,0,0,0,0,0,0,-0.0251,-0.0249,-0.0204,-0.0212,-0.0204,-0.0155,-0.0156,-0.0146,-0.0128,-0.002,0.0002,-0.0102,0.0087,0.0115,0.0216,0.023,0.0232,0.0241,0.0477,0.0478,0.0479,0.039,0,0,0,0,0,0,-0.0253,-0.025,-0.0258,-0.0214,-0.0204,-0.0197,-0.0156,-0.0145,-0.0127,-0.0122,-0.0006,0.0017,0.009,0.0201,0.0225,0.0243,0.0248,0.0475,0.0477,0.0479,0.0392,0.0389,0.0386,0,0,0,0,0,-0.0254,-0.0272,-0.0259,-0.0255,-0.0217,-0.0198,-0.019,-0.0151,-0.0127,-0.0131,-0.0035,0.0014,0.023,0.021,0.0238,0.0259,0.0474,0.0477,0.0479,0.0394,0.0389,0.0386,0,0,0,0,0,0,-0.0292,-0.0266,-0.0251,-0.026,-0.0238,-0.0189,-0.0187,-0.0158,-0.009,-0.0076,0.0032,0.0063,0.0153,0.0221,0.0196,0.0338,0.0359,0.0366,0.0284,0.0281,0.0278,0.0227,0.0256,0,0,0,0,0,-0.0306,-0.0308,-0.0279,-0.0284,-0.0279,-0.0233,-0.022,-0.0197,-0.0133,-0.0105,-0.0022,0.0082,0.0184,0.0242,0.0329,0.0412,0.0433,0.0444,0.0441,0.0437,0.0416,0.0449,0.0445,0.0487,0.0487,0.0487,0,0,-0.0323,-0.0306,-0.0309,-0.0292,-0.0268,-0.0269,-0.0224,-0.0215,-0.0201,-0.0083,-0.0028,0.007,0.0202,0.029,0.0338,0.0351,0.0439,0.044,0.0436,0.0416,0.0451,0.0446,0.0442,0.0489,0.0489,0.0488,0,0,-0.0363,-0.0344,-0.0367,-0.0352,-0.0331,-0.03,-0.0303,-0.0261,-0.023,-0.0168,-0.0068,0.0038,0.017,0.0275,0.0347,0.0383,0.0414,0.0409,0.0362,0.0394,0.039,0.0386,0.0403,0.0402,0.0414,0.0414,0.0414,0,-0.0385,-0.0404,-0.037,-0.0384,-0.0374,-0.032,-0.0338,-0.0299,-0.0226,-0.0192,-0.0166,0.0043,0.0164,0.0294,0.0314,0.0376,0.0377,0.0363,0.0385,0.0382,0.038,0.0398,0.0398,0.041,0.041,0.0411,0.0411,0,-0.0447,-0.0454,-0.0463,-0.0458,-0.0444,-0.0449,-0.04,-0.0374,-0.0325,-0.0276,-0.0169,-0.0016,0.0109,0.0174,0.0264,0.0329,0.0329,0.0366,0.038,0.0369,0.0391,0.0392,0.0404,0.0405,0.0407,0.0408,0,0,-0.0501,-0.051,-0.0508,-0.0516,-0.0483,-0.0478,-0.0453,-0.0411,-0.0385,-0.0308,-0.0263,-0.007,-0.0003,0.0084,0.021,0.0258,0.0276,0.0293,0.0297,0.0283,0.0311,0.0357,0.0363,0.0293,0.0292,0.0292,0.033,0,-0.0555,-0.0604,-0.0583,-0.0606,-0.0624,-0.0563,-0.0539,-0.0488,-0.0423,-0.0366,-0.0223,-0.0126,-0.0032,0.0042,0.0099,0.0243,0.0272,0.026,0.0347,0.035,0.037,0.0364,0.0351,0.0386,0.0331,0.0331,0.0331,0,-0.0621,-0.0637,-0.0689,-0.0675,-0.0676,-0.0678,-0.0624,-0.0595,-0.0496,-0.0444,-0.0349,-0.0245,-0.0112,-0.005,0.0112,0.0085,0.0177,0.0263,0.0267,0.0336,0.0397,0.0394,0.0391,0.0333,0.0333,0.0333,0.0333,0,-0.0684,-0.0702,-0.0746,-0.0745,-0.0728,-0.0727,-0.0704,-0.0624,-0.059,-0.0494,-0.0456,-0.0322,-0.0226,-0.0126,0.0079,0.0076,0.0224,0.0255,0.0369,0.0373,0.0396,0.0402,0.0323,0.0323,0.0323,0.0323,0.0323,0,-0.0751,-0.0778,-0.0782,-0.0808,-0.0829,-0.0791,-0.0789,-0.0741,-0.0669,-0.0624,-0.0501,-0.0429,-0.0249,-0.0121,0.0022,0.0203,0.018,0.0346,0.0385,0.0368,0.0371,0.0356,0.036,0.0324,0.0324,0.0323,0.0323,0,-0.0823,-0.0832,-0.0874,-0.0872,-0.0871,-0.0885,-0.0856,-0.0844,-0.0768,-0.0709,-0.0681,-0.0516,-0.0349,-0.0165,0.0038,0.0156,0.0317,0.0385,0.0349,0.0384,0.0445,0.0444,0.0481,0.0483,0.0484,0.0486,0.0487,0,-0.0868,-0.0907,-0.0928,-0.0947,-0.0954,-0.0963,-0.0963,-0.0903,-0.0879,-0.0745,-0.0717,-0.0547,-0.0397,-0.0097,0.013,0.035,0.0366,0.0462,0.0476,0.0426,0.046,0.0457,0.0453,0.0467,0.0468,0.0469,0.0469,0,-0.0943,-0.0957,-0.0989,-0.1023,-0.1044,-0.1055,-0.1048,-0.1043,-0.0953,-0.0879,-0.0744,-0.0618,-0.0318,-0.0056,0.0234,0.0366,0.0422,0.0484,0.0444,0.0437,0.0419,0.0451,0.0447,0.0476,0.0475,0.0475,0.0474,0.0474,-0.0984,-0.1025,-0.1063,-0.1089,-0.1113,-0.1128,-0.1131,-0.1096,-0.104,-0.0894,-0.0774,-0.0544,-0.0306,0.0123,0.0323,0.051,0.0503,0.0557,0.0552,0.0547,0.0546,0.0533,0.061,0.061,0.061,0.061,0.061,0,-0.1009,-0.1071,-0.1116,-0.115,-0.1178,-0.1172,-0.1166,-0.1134,-0.106,-0.0885,-0.0721,-0.0421,-0.0119,0.0127,0.043,0.0602,0.0584,0.0626,0.057,0.0563,0.0557,0.0555,0.0622,0.0622,0.0623,0.0623,0,0,-0.1034,-0.1105,-0.1131,-0.1186,-0.1209,-0.1225,-0.1218,-0.1141,-0.1013,-0.0823,-0.063,-0.0391,-0.0094,0.012,0.0334,0.049,0.048,0.0504,0.0479,0.0381,0.0373,0.0506,0.0494,0,0,0,0,0]}],[{"header":{"parameterUnit":"m.s-1","parameterCategory":2,"la1":30.2991,"la2":30.254,"lo1":-89.0895,"lo2":-89.0444,"dy":0.0017,"dx":0.0017,"nx":28,"ny":28,"refTime":"2025-08-29T21:00:00:Z","depth":"4","parameterNumber":2,"parameterNumberName":"U-component_of_CURRENTS"},"data":[0,0,0,0,0,0,0,0,0,0,0,0,0,0,0,0,0,0,0,0,0,0,0,0,0,0,0,0,0,0,0,0,0,0,0,0,0,0,0,0,0,0,0,0,0,0,0,0,0,0,0,0,0,0,0,0,0,0,-0.1278,-0.1279,0,-0.1368,-0.1369,-0.137,-0.1412,-0.1412,-0.1412,-0.1412,-0.1408,-0.1408,-0.1408,0,0,0,0,0,0,0,0,0,0,0,0,0,-0.1157,-0.1159,-0.1278,-0.1279,-0.128,-0.1368,-0.1369,-0.137,-0.1412,-0.1412,-0.1412,-0.1412,-0.1409,-0.1408,-0.1408,0,0,0,0,0,0,0,0,0,0,0,0,0,-0.1224,-0.1159,-0.1278,-0.1312,-0.1317,-0.1368,-0.1369,-0.1371,-0.1412,-0.1412,-0.1412,-0.1412,-0.1409,-0.1408,-0.1408,-0.1407,0,0,-0.1408,-0.1408,0,0,0,0,0,0,0,0,-0.122,-0.1228,-0.1306,-0.131,-0.1315,-0.138,-0.1326,-0.1379,-0.1412,-0.1375,-0.1412,-0.1412,-0.1391,-0.1392,-0.1409,-0.1407,-0.1406,-0.1408,-0.1408,-0.1408,-0.1408,0,0,0,0,0,0,0,-0.1215,-0.1224,-0.1313,-0.1307,-0.1313,-0.1329,-0.1338,-0.1336,-0.1379,-0.1378,-0.1382,-0.1393,-0.1392,-0.1409,-0.1409,-0.1406,-0.1408,-0.1408,-0.1407,-0.1407,-0.1465,-0.1466,0,0,0,0,0,0,-0.1205,-0.122,-0.131,-0.1316,-0.1267,-0.1331,-0.1341,-0.1358,-0.1381,-0.1386,-0.1393,-0.1395,-0.1409,-0.1409,-0.1409,-0.1439,-0.1408,-0.1407,-0.1407,-0.1463,-0.1465,-0.1467,0,0,0,0,0,0,-0.1203,-0.1213,-0.1306,-0.127,-0.1283,-0.1333,-0.1352,-0.136,-0.1395,-0.1394,-0.1396,-0.1421,-0.1409,-0.1409,-0.1429,-0.1438,-0.1407,-0.1407,-0.1461,-0.1464,-0.1466,-0.1479,0,0,0,0,0,0,-0.1199,-0.1211,-0.1232,-0.127,-0.1285,-0.135,-0.1352,-0.1362,-0.1401,-0.1405,-0.1418,-0.1417,-0.1409,-0.143,-0.1429,-0.1437,-0.1407,-0.1459,-0.1462,-0.1465,-0.1477,-0.1482,-0.1486,0,0,0,0,0,-0.1194,-0.122,-0.1232,-0.1244,-0.1308,-0.1351,-0.1361,-0.1395,-0.1403,-0.1425,-0.1436,-0.1418,-0.1449,-0.1431,-0.143,-0.1438,-0.1458,-0.1461,-0.1465,-0.1475,-0.1481,-0.1486,0,0,0,0,0,0,-0.1177,-0.1228,-0.1242,-0.1282,-0.1319,-0.1359,-0.1387,-0.1406,-0.1436,-0.1439,-0.1434,-0.1435,-0.1457,-0.1454,-0.1435,-0.1468,-0.1452,-0.1455,-0.146,-0.1465,-0.147,-0.148,-0.1407,0,0,0,0,0,-0.1182,-0.1211,-0.126,-0.1288,-0.1313,-0.1352,-0.1378,-0.14,-0.1426,-0.1442,-0.1459,-0.147,-0.147,-0.1473,-0.1482,-0.1496,-0.1511,-0.1505,-0.1509,-0.1513,-0.1524,-0.1565,-0.1574,-0.1479,-0.1479,-0.1479,0,0,-0.1174,-0.1211,-0.1223,-0.1286,-0.1319,-0.1361,-0.1369,-0.1412,-0.144,-0.1433,-0.1485,-0.1488,-0.148,-0.1499,-0.1508,-0.1496,-0.1549,-0.1518,-0.152,-0.153,-0.157,-0.1579,-0.1587,-0.1481,-0.1481,-0.1481,0,0,-0.1178,-0.1216,-0.1248,-0.129,-0.1349,-0.1374,-0.139,-0.145,-0.1472,-0.1516,-0.1512,-0.1525,-0.155,-0.154,-0.1533,-0.157,-0.1575,-0.158,-0.1605,-0.1644,-0.1652,-0.1659,-0.1688,-0.1697,-0.1579,-0.1579,-0.1579,0,-0.1174,-0.1224,-0.1261,-0.1313,-0.135,-0.1382,-0.1427,-0.1452,-0.151,-0.1529,-0.1538,-0.158,-0.1565,-0.1566,-0.1579,-0.1576,-0.1609,-0.1575,-0.1648,-0.1656,-0.1663,-0.1691,-0.1701,-0.158,-0.158,-0.158,-0.158,0,-0.1195,-0.1257,-0.1281,-0.1354,-0.1394,-0.1438,-0.1481,-0.152,-0.1551,-0.1579,-0.1617,-0.1614,-0.1639,-0.163,-0.1611,-0.1647,-0.1658,-0.1649,-0.1628,-0.1673,-0.17,-0.171,-0.1582,-0.1581,-0.1581,-0.1581,0,0,-0.114,-0.1273,-0.1287,-0.1342,-0.1425,-0.1459,-0.1504,-0.1556,-0.1595,-0.1636,-0.1692,-0.1673,-0.169,-0.1685,-0.1667,-0.169,-0.1747,-0.1698,-0.1699,-0.1716,-0.1848,-0.1677,-0.1672,-0.1764,-0.1766,-0.1768,-0.1846,0,-0.1154,-0.1262,-0.1317,-0.1407,-0.1468,-0.1519,-0.1561,-0.1606,-0.165,-0.1716,-0.1704,-0.175,-0.1702,-0.1725,-0.1738,-0.1756,-0.1779,-0.1728,-0.1812,-0.1815,-0.1648,-0.1679,-0.1774,-0.1853,-0.1856,-0.1857,-0.1859,0,-0.1157,-0.1238,-0.1338,-0.1462,-0.1491,-0.1543,-0.1626,-0.1668,-0.1737,-0.1776,-0.1812,-0.1832,-0.1853,-0.1825,-0.1864,-0.1845,-0.1853,-0.1859,-0.1862,-0.1705,-0.1662,-0.1802,-0.1878,-0.1876,-0.1875,-0.1873,-0.1872,0,-0.1102,-0.1249,-0.1332,-0.1376,-0.151,-0.1558,-0.1616,-0.1691,-0.1737,-0.1827,-0.1883,-0.1915,-0.1944,-0.1969,-0.1943,-0.1939,-0.1997,-0.1989,-0.1839,-0.1828,-0.1954,-0.1945,-0.2032,-0.2032,-0.2032,-0.2032,-0.2032,0,-0.1094,-0.1161,-0.1326,-0.1372,-0.1463,-0.1555,-0.1644,-0.17,-0.1802,-0.1852,-0.1913,-0.1945,-0.1989,-0.2009,-0.1997,-0.1927,-0.2034,-0.1849,-0.1835,-0.1957,-0.1949,-0.1961,-0.1951,-0.2035,-0.2034,-0.2033,-0.2033,0,-0.1023,-0.1131,-0.1233,-0.1393,-0.1446,-0.1505,-0.166,-0.1717,-0.1817,-0.1893,-0.1927,-0.1998,-0.2004,-0.2014,-0.2047,-0.1965,-0.194,-0.1889,-0.2016,-0.2009,-0.1747,-0.1738,-0.1763,-0.1758,-0.1753,-0.175,-0.1746,0,-0.0989,-0.1044,-0.1229,-0.1292,-0.1373,-0.149,-0.1565,-0.1699,-0.1757,-0.1886,-0.1905,-0.1962,-0.1977,-0.1885,-0.191,-0.1876,-0.1835,-0.1827,-0.1783,-0.1734,-0.172,-0.1718,-0.1715,-0.1739,-0.1738,-0.1737,-0.1735,0,-0.0905,-0.0986,-0.1071,-0.1225,-0.1324,-0.1434,-0.1553,-0.1588,-0.1718,-0.1832,-0.1826,-0.1813,-0.1807,-0.1784,-0.1748,-0.1723,-0.184,-0.1779,-0.1789,-0.1747,-0.1705,-0.1695,-0.1697,-0.172,-0.1722,-0.1723,-0.1724,0,-0.0813,-0.0859,-0.0991,-0.1124,-0.1255,-0.1341,-0.1421,-0.1492,-0.1561,-0.1697,-0.1683,-0.1724,-0.1788,-0.1703,-0.1678,-0.1624,-0.1604,-0.1557,-0.1578,-0.1596,-0.1493,-0.1412,-0.1328,0,0,0,0,0,-0.0709,-0.0767,-0.0882,-0.102,-0.1169,-0.1248,-0.1396,-0.1474,-0.1601,-0.155,-0.1613,-0.1589,-0.1537,-0.1561,-0.1467,-0.1602,-0.1614,-0.1487,-0.1573,-0.1631,-0.165,-0.1538,0,0,0,0,0,0,-0.0633,-0.0715,-0.0825,-0.0929,-0.101,-0.1144,-0.1231,-0.1322,-0.1306,-0.1424,-0.1399,-0.148,-0.1449,-0.155,-0.1426,-0.1432,-0.1451,-0.1519,-0.1514,-0.1621,-0.1637,-0.1652,-0.1544,0,0,0,0,0]},{"header":{"parameterUnit":"m.s-1","parameterCategory":2,"la1":30.2991,"la2":30.254,"lo1":-89.0895,"lo2":-89.0444,"dy":0.0017,"dx":0.0017,"nx":28,"ny":28,"refTime":"2025-08-29T21:00:00:Z","depth":"4","parameterNumber":3,"parameterNumberName":"V-component_of_CURRENTS"},"data":[0,0,0,0,0,0,0,0,0,0,0,0,0,0,0,0,0,0,0,0,0,0,0,0,0,0,0,0,0,0,0,0,0,0,0,0,0,0,0,0,0,0,0,0,0,0,0,0,0,0,0,0,0,0,0,0,0,0,-0.0203,-0.0202,0,-0.0167,-0.0167,-0.0166,-0.0123,-0.0123,-0.0122,-0.0122,-0.0084,-0.0083,-0.0083,0,0,0,0,0,0,0,0,0,0,0,0,0,-0.0176,-0.0177,-0.0203,-0.0202,-0.0202,-0.0167,-0.0167,-0.0166,-0.0123,-0.0123,-0.0122,-0.0121,-0.0084,-0.0083,-0.0083,0,0,0,0,0,0,0,0,0,0,0,0,0,-0.0167,-0.0177,-0.0203,-0.0178,-0.0175,-0.0167,-0.0167,-0.0166,-0.0123,-0.0123,-0.0122,-0.0121,-0.0084,-0.0083,-0.0083,-0.0092,0,0,-0.008,-0.008,0,0,0,0,0,0,0,0,-0.0168,-0.0168,-0.0182,-0.018,-0.0177,-0.015,-0.0143,-0.0142,-0.0124,-0.0141,-0.0122,-0.0121,-0.0108,-0.0105,-0.0097,-0.0091,-0.0089,-0.008,-0.0079,-0.0079,-0.0079,0,0,0,0,0,0,0,-0.0168,-0.0169,-0.0187,-0.0182,-0.0179,-0.0149,-0.0147,-0.0142,-0.0128,-0.014,-0.0137,-0.0136,-0.0106,-0.0098,-0.0096,-0.0088,-0.008,-0.0079,-0.0079,-0.0078,-0.0102,-0.0103,0,0,0,0,0,0,-0.0181,-0.017,-0.0188,-0.0186,-0.0172,-0.015,-0.0148,-0.0158,-0.0128,-0.0123,-0.0137,-0.0134,-0.01,-0.0097,-0.0095,-0.0121,-0.0079,-0.0078,-0.0078,-0.0101,-0.0102,-0.0103,0,0,0,0,0,0,-0.018,-0.0183,-0.0189,-0.0177,-0.0176,-0.0152,-0.0163,-0.0158,-0.015,-0.0126,-0.012,-0.0135,-0.0099,-0.0096,-0.0098,-0.0118,-0.0078,-0.0077,-0.0099,-0.0101,-0.0103,-0.0163,0,0,0,0,0,0,-0.018,-0.0183,-0.0192,-0.0179,-0.0178,-0.0197,-0.0164,-0.0158,-0.0152,-0.0148,-0.0122,-0.0118,-0.0098,-0.0099,-0.0097,-0.0116,-0.0077,-0.0098,-0.01,-0.0102,-0.0159,-0.0166,-0.0172,0,0,0,0,0,-0.0179,-0.0199,-0.0193,-0.0194,-0.0191,-0.0198,-0.0195,-0.0173,-0.0152,-0.016,-0.014,-0.0119,-0.0111,-0.0099,-0.0096,-0.0116,-0.0097,-0.01,-0.0102,-0.0156,-0.0165,-0.0172,0,0,0,0,0,0,-0.019,-0.0196,-0.0189,-0.0209,-0.0208,-0.0192,-0.0194,-0.0178,-0.0167,-0.0161,-0.0131,-0.0127,-0.0136,-0.0121,-0.0109,-0.013,-0.0101,-0.0103,-0.0144,-0.0151,-0.0158,-0.0137,-0.0076,0,0,0,0,0,-0.0199,-0.0215,-0.0213,-0.0229,-0.0231,-0.0212,-0.021,-0.0199,-0.0188,-0.0181,-0.0163,-0.0148,-0.0146,-0.0143,-0.0136,-0.0149,-0.0093,-0.016,-0.0167,-0.0172,-0.0155,-0.008,-0.0076,-0.0112,-0.0111,-0.0111,0,0,-0.0208,-0.0212,-0.0222,-0.0233,-0.0226,-0.0239,-0.0209,-0.0214,-0.022,-0.0181,-0.0182,-0.017,-0.0154,-0.0167,-0.017,-0.0155,-0.0139,-0.0175,-0.018,-0.0159,-0.0082,-0.0078,-0.0074,-0.0113,-0.0113,-0.0113,0,0,-0.024,-0.0239,-0.0266,-0.0268,-0.027,-0.026,-0.0265,-0.0255,-0.0246,-0.0252,-0.0226,-0.0222,-0.0218,-0.0208,-0.0203,-0.0242,-0.0175,-0.0248,-0.0263,-0.0192,-0.0187,-0.0182,-0.0128,-0.0117,-0.0251,-0.0251,-0.0251,0,-0.0247,-0.0281,-0.0273,-0.0295,-0.0298,-0.0274,-0.0296,-0.0289,-0.0279,-0.0269,-0.0262,-0.0237,-0.0236,-0.0232,-0.0252,-0.0255,-0.0199,-0.0236,-0.0197,-0.0191,-0.0185,-0.0129,-0.0117,-0.0255,-0.0254,-0.0254,-0.0254,0,-0.03,-0.0321,-0.0335,-0.0354,-0.0357,-0.0372,-0.0363,-0.036,-0.0343,-0.0325,-0.0314,-0.0299,-0.0277,-0.0291,-0.0287,-0.0258,-0.0229,-0.0212,-0.0171,-0.0184,-0.0126,-0.0113,-0.0259,-0.0258,-0.0257,-0.0256,0,0,-0.032,-0.0365,-0.0367,-0.0385,-0.0387,-0.0397,-0.0404,-0.04,-0.0389,-0.0373,-0.0349,-0.0358,-0.0324,-0.0316,-0.0304,-0.0255,-0.0194,-0.0219,-0.0214,-0.0155,-0.0031,-0.0056,-0.0043,-0.0156,-0.0154,-0.0152,-0.0015,0,-0.0358,-0.042,-0.0424,-0.0464,-0.0489,-0.0465,-0.047,-0.0457,-0.0432,-0.0402,-0.0366,-0.0347,-0.0341,-0.0331,-0.028,-0.0213,-0.0156,-0.0232,-0.0035,-0.0029,-0.004,-0.0027,-0.0144,-0.0004,-0.0001,0.0002,0.0003,0,-0.04,-0.0435,-0.0496,-0.0517,-0.0523,-0.0541,-0.0525,-0.0525,-0.0474,-0.0448,-0.04,-0.0356,-0.0304,-0.0288,-0.0149,-0.0191,-0.0112,-0.0053,-0.0046,-0.003,-0.0027,0.0017,0.0029,0.0027,0.0026,0.0024,0.0022,0,-0.0424,-0.0474,-0.0528,-0.0538,-0.0563,-0.0576,-0.0577,-0.0542,-0.0534,-0.0467,-0.0437,-0.0351,-0.0312,-0.0189,-0.009,-0.0101,0.0084,0.0084,0.0143,0.0142,0.0151,0.0145,0.0212,0.0212,0.0212,0.0211,0.0211,0,-0.0458,-0.0493,-0.0549,-0.058,-0.0618,-0.0613,-0.0629,-0.0607,-0.0566,-0.0543,-0.0462,-0.0414,-0.0278,-0.0167,-0.0063,0.0077,0.0111,0.0157,0.0184,0.0117,0.0105,0.0161,0.0153,0.0217,0.0215,0.0214,0.0213,0,-0.0478,-0.0518,-0.0576,-0.0624,-0.0641,-0.0665,-0.0682,-0.0683,-0.0632,-0.0594,-0.0572,-0.045,-0.0304,-0.0166,0.0027,0.0095,0.0238,0.0283,0.0196,0.0213,0.0245,0.0232,0.0375,0.0375,0.0375,0.0376,0.0376,0,-0.0491,-0.0534,-0.0619,-0.0656,-0.0685,-0.0722,-0.0746,-0.0723,-0.0713,-0.0613,-0.0589,-0.0448,-0.0355,-0.0089,0.0045,0.0258,0.0276,0.0347,0.0301,0.0254,0.0267,0.0253,0.024,0.0377,0.0377,0.0377,0.0377,0,-0.0508,-0.0552,-0.0607,-0.0696,-0.0745,-0.0789,-0.0814,-0.0807,-0.0758,-0.0717,-0.0578,-0.0435,-0.0271,-0.0085,0.0074,0.0222,0.0298,0.0352,0.0352,0.0309,0.0258,0.0267,0.0254,0.0378,0.0378,0.0378,0.0378,0,-0.0505,-0.0557,-0.0646,-0.0715,-0.079,-0.0835,-0.0841,-0.0811,-0.0787,-0.0666,-0.0622,-0.0427,-0.0316,-0.0102,0.0049,0.0185,0.0214,0.0246,0.0252,0.0252,0.0159,0.0073,0.0176,0,0,0,0,0,-0.0486,-0.0563,-0.0651,-0.0738,-0.0821,-0.086,-0.0879,-0.0868,-0.0818,-0.0723,-0.0665,-0.0501,-0.0255,-0.0143,-0.0007,0.003,0.0212,0.0189,0.0245,0.0386,0.0384,0.0292,0,0,0,0,0,0,-0.0475,-0.0569,-0.065,-0.0753,-0.0816,-0.0892,-0.0906,-0.087,-0.08,-0.0723,-0.0586,-0.049,-0.0252,-0.0335,-0.0012,0.003,0.008,0.0311,0.0313,0.0387,0.0385,0.0384,0.0288,0,0,0,0,0]}]]